| time (UTC) | temp F | wind direction | speed MPH | gust MPH | rain 1hr in | rain 24hr in | rain mn in | humidity % | barometer mb |
| 20260507120855 | 51 | 341 | 1.0 | 3.0 | 0.00 | 0.21 | 0.00 | 53 | 1013.3 |
| 20260507120355 | 51 | 331 | 1.0 | 3.0 | 0.00 | 0.21 | 0.00 | 56 | 1013.3 |
| 20260507115855 | 51 | 341 | 1.0 | 3.0 | 0.00 | 0.21 | 0.00 | 55 | 1013.3 |
| 20260507115355 | 51 | 327 | 1.0 | 3.0 | 0.00 | 0.26 | 0.00 | 57 | 1013.3 |
| 20260507114855 | 51 | 299 | 1.0 | 2.0 | 0.00 | 0.26 | 0.00 | 56 | 1013.4 |
| 20260507114355 | 51 | 315 | 1.0 | 3.0 | 0.00 | 0.26 | 0.00 | 56 | 1013.4 |
| 20260507113857 | 51 | 319 | 1.0 | 4.0 | 0.00 | 0.26 | 0.00 | 57 | 1013.4 |
| 20260507113355 | 51 | 317 | 1.0 | 3.0 | 0.00 | 0.26 | 0.00 | 58 | 1013.4 |
| 20260507112856 | 51 | 305 | 1.0 | 3.0 | 0.00 | 0.26 | 0.00 | 59 | 1013.3 |
| 20260507112357 | 51 | 297 | 2.0 | 3.0 | 0.00 | 0.26 | 0.00 | 63 | 1013.3 |
| 20260507111857 | 51 | 304 | 1.0 | 3.0 | 0.00 | 0.26 | 0.00 | 61 | 1013.2 |
| 20260507111356 | 51 | 277 | 1.0 | 3.0 | 0.00 | 0.26 | 0.00 | 62 | 1013.1 |
| 20260507110856 | 51 | 295 | 0.0 | 1.0 | 0.00 | 0.26 | 0.00 | 63 | 1013.0 |
| 20260507110356 | 50 | 298 | 0.0 | 1.0 | 0.00 | 0.26 | 0.00 | 61 | 1012.8 |
| 20260507105856 | 50 | 319 | 0.0 | 1.0 | 0.00 | 0.26 | 0.00 | 61 | 1012.8 |
| 20260507105356 | 50 | 319 | 0.0 | 1.0 | 0.00 | 0.31 | 0.00 | 62 | 1012.9 |
| 20260507104856 | 50 | 331 | 0.0 | 1.0 | 0.00 | 0.31 | 0.00 | 60 | 1012.8 |
| 20260507104356 | 50 | 331 | 1.0 | 1.0 | 0.00 | 0.31 | 0.00 | 59 | 1012.7 |
| 20260507103856 | 51 | 331 | 0.0 | 2.0 | 0.00 | 0.31 | 0.00 | 61 | 1012.8 |
| 20260507103356 | 51 | 316 | 0.0 | 1.0 | 0.00 | 0.31 | 0.00 | 60 | 1012.8 |
| 20260507102856 | 51 | 309 | 1.0 | 2.0 | 0.00 | 0.31 | 0.00 | 59 | 1012.7 |
| 20260507102358 | 51 | 303 | 1.0 | 1.0 | 0.00 | 0.31 | 0.00 | 58 | 1012.4 |
| 20260507101927 | 51 | 306 | 2.0 | 4.0 | 0.00 | 0.31 | 0.00 | 58 | 1012.3 |
| 20260507101856 | 51 | 306 | 2.0 | 4.0 | 0.00 | 0.31 | 0.00 | 58 | 1012.3 |
| 20260507101356 | 51 | 321 | 1.0 | 5.0 | 0.00 | 0.31 | 0.00 | 57 | 1012.2 |
| 20260507100856 | 50 | 321 | 2.0 | 3.0 | 0.00 | 0.31 | 0.00 | 60 | 1012.1 |
| 20260507100356 | 50 | 319 | 1.0 | 6.0 | 0.00 | 0.31 | 0.00 | 61 | 1012.1 |
| 20260507095857 | 50 | 344 | 1.0 | 3.0 | 0.00 | 0.31 | 0.00 | 64 | 1012.0 |
| 20260507095356 | 50 | 325 | 1.0 | 2.0 | 0.00 | 0.31 | 0.00 | 64 | 1012.0 |
| 20260507095101 | 51 | 317 | 0.0 | 2.0 | 0.00 | 0.31 | 0.00 | 66 | 1012.1 |
| 20260507094942 | 51 | 317 | 0.0 | 2.0 | 0.00 | 0.31 | 0.00 | 66 | 1012.1 |
| 20260507094856 | 51 | 317 | 0.0 | 2.0 | 0.00 | 0.31 | 0.00 | 66 | 1012.1 |
| 20260507094356 | 51 | 319 | 0.0 | 1.0 | 0.00 | 0.31 | 0.00 | 65 | 1012.1 |
| 20260507093857 | 51 | 300 | 0.0 | 0.0 | 0.00 | 0.31 | 0.00 | 65 | 1012.1 |
| 20260507093538 | 51 | 300 | 0.0 | 1.0 | 0.00 | 0.31 | 0.00 | 64 | 1012.1 |
| 20260507093356 | 51 | 300 | 0.0 | 1.0 | 0.00 | 0.31 | 0.00 | 64 | 1012.1 |
| 20260507092932 | 51 | 315 | 0.0 | 0.0 | 0.00 | 0.31 | 0.00 | 62 | 1012.1 |
| 20260507092856 | 51 | 315 | 0.0 | 0.0 | 0.00 | 0.31 | 0.00 | 62 | 1012.1 |
| 20260507092357 | 51 | 315 | 0.0 | 0.0 | 0.00 | 0.31 | 0.00 | 63 | 1012.1 |
| 20260507091856 | 51 | 315 | 0.0 | 0.0 | 0.00 | 0.31 | 0.00 | 63 | 1012.0 |
| 20260507091356 | 51 | 332 | 1.0 | 2.0 | 0.00 | 0.31 | 0.00 | 62 | 1012.1 |
| 20260507090942 | 51 | 322 | 1.0 | 0.0 | 0.00 | 0.31 | 0.00 | 60 | 1011.9 |
| 20260507090856 | 51 | 322 | 1.0 | 0.0 | 0.00 | 0.31 | 0.00 | 60 | 1011.9 |
| 20260507090356 | 51 | 350 | 1.0 | 3.0 | 0.00 | 0.31 | 0.00 | 63 | 1011.8 |
| 20260507085856 | 51 | 342 | 1.0 | 4.0 | 0.00 | 0.31 | 0.00 | 63 | 1011.8 |
| 20260507085357 | 51 | 340 | 0.0 | 2.0 | 0.00 | 0.31 | 0.00 | 65 | 1011.7 |
| 20260507084857 | 51 | 347 | 1.0 | 2.0 | 0.00 | 0.31 | 0.00 | 65 | 1011.8 |
| 20260507084356 | 52 | 9 | 3.0 | 6.0 | 0.00 | 0.31 | 0.00 | 64 | 1011.7 |
| 20260507083856 | 52 | 321 | 2.0 | 5.0 | 0.00 | 0.31 | 0.00 | 62 | 1011.8 |
| 20260507083356 | 52 | 331 | 3.0 | 5.0 | 0.00 | 0.31 | 0.00 | 65 | 1011.8 |
| 20260507082856 | 52 | 349 | 3.0 | 10.0 | 0.00 | 0.31 | 0.00 | 66 | 1011.8 |
| 20260507082358 | 52 | 321 | 2.0 | 8.0 | 0.00 | 0.31 | 0.00 | 68 | 1011.7 |
| 20260507081856 | 52 | 336 | 1.0 | 3.0 | 0.00 | 0.31 | 0.00 | 69 | 1011.7 |
| 20260507081356 | 52 | 343 | 1.0 | 2.0 | 0.00 | 0.31 | 0.00 | 69 | 1011.6 |
| 20260507080856 | 52 | 26 | 2.0 | 4.0 | 0.00 | 0.31 | 0.00 | 70 | 1011.4 |
| 20260507080356 | 52 | 339 | 3.0 | 5.0 | 0.00 | 0.31 | 0.00 | 70 | 1011.3 |
| 20260507075856 | 52 | 5 | 2.0 | 5.0 | 0.00 | 0.31 | 0.00 | 72 | 1011.3 |
| 20260507075357 | 52 | 17 | 2.0 | 4.0 | 0.00 | 0.31 | 0.00 | 73 | 1011.3 |
| 20260507074856 | 52 | 344 | 2.0 | 5.0 | 0.00 | 0.31 | 0.00 | 73 | 1011.2 |
| 20260507074356 | 52 | 321 | 2.0 | 4.0 | 0.00 | 0.31 | 0.00 | 74 | 1011.4 |
| 20260507073857 | 52 | 326 | 1.0 | 5.0 | 0.00 | 0.31 | 0.00 | 73 | 1011.2 |
| 20260507073356 | 52 | 334 | 1.0 | 3.0 | 0.00 | 0.31 | 0.00 | 75 | 1011.3 |
| 20260507072856 | 53 | 346 | 1.0 | 3.0 | 0.00 | 0.31 | 0.00 | 74 | 1011.3 |
| 20260507072356 | 53 | 335 | 1.0 | 3.0 | 0.00 | 0.31 | 0.00 | 74 | 1011.5 |
| 20260507071856 | 53 | 334 | 2.0 | 5.0 | 0.00 | 0.31 | 0.00 | 74 | 1011.4 |
| 20260507071430 | 53 | 314 | 2.0 | 4.0 | 0.00 | 0.31 | 0.00 | 74 | 1011.5 |
| 20260507071356 | 53 | 314 | 2.0 | 4.0 | 0.00 | 0.31 | 0.00 | 74 | 1011.5 |
| 20260507070856 | 53 | 319 | 2.0 | 6.0 | 0.00 | 0.31 | 0.00 | 75 | 1011.5 |
| 20260507070356 | 53 | 304 | 1.0 | 3.0 | 0.00 | 0.31 | 0.00 | 76 | 1011.6 |
| 20260507065856 | 53 | 318 | 1.0 | 2.0 | 0.00 | 0.31 | 0.00 | 76 | 1011.6 |
| 20260507065356 | 53 | 312 | 1.0 | 2.0 | 0.00 | 0.31 | 0.00 | 76 | 1011.7 |
| 20260507064857 | 53 | 326 | 1.0 | 2.0 | 0.00 | 0.31 | 0.00 | 76 | 1011.6 |
| 20260507064356 | 53 | 322 | 0.0 | 2.0 | 0.00 | 0.31 | 0.00 | 76 | 1011.7 |
| 20260507063856 | 53 | 321 | 0.0 | 2.0 | 0.00 | 0.31 | 0.00 | 78 | 1011.7 |
| 20260507063356 | 53 | 347 | 0.0 | 0.0 | 0.00 | 0.31 | 0.00 | 80 | 1011.5 |
| 20260507062856 | 53 | 347 | 0.0 | 1.0 | 0.00 | 0.31 | 0.00 | 80 | 1011.6 |
| 20260507062357 | 53 | 24 | 0.0 | 0.0 | 0.00 | 0.31 | 0.00 | 79 | 1011.6 |
| 20260507061856 | 53 | 24 | 0.0 | 0.0 | 0.00 | 0.31 | 0.00 | 79 | 1011.7 |
| 20260507061356 | 53 | 23 | 0.0 | 0.0 | 0.00 | 0.31 | 0.00 | 78 | 1011.7 |
| 20260507060856 | 53 | 23 | 0.0 | 1.0 | 0.00 | 0.31 | 0.00 | 78 | 1011.7 |
| 20260507060356 | 53 | 24 | 0.0 | 2.0 | 0.00 | 0.31 | 0.00 | 78 | 1011.6 |
| 20260507055856 | 53 | 49 | 0.0 | 0.0 | 0.00 | 0.31 | 0.00 | 80 | 1011.7 |
| 20260507055357 | 53 | 49 | 0.0 | 0.0 | 0.00 | 0.31 | 0.00 | 78 | 1011.7 |
| 20260507054856 | 53 | 49 | 0.0 | 0.0 | 0.00 | 0.31 | 0.00 | 78 | 1011.7 |
| 20260507054440 | 53 | 49 | 0.0 | 0.0 | 0.00 | 0.31 | 0.00 | 78 | 1011.5 |
| 20260507054356 | 53 | 49 | 0.0 | 0.0 | 0.00 | 0.31 | 0.00 | 78 | 1011.5 |
| 20260507053858 | 53 | 49 | 0.0 | 0.0 | 0.00 | 0.31 | 0.00 | 78 | 1011.5 |
| 20260507053356 | 54 | 28 | 0.0 | 0.0 | 0.00 | 0.31 | 0.00 | 75 | 1011.4 |
| 20260507052930 | 54 | 28 | 0.0 | 0.0 | 0.00 | 0.31 | 0.00 | 75 | 1011.3 |
| 20260507052856 | 54 | 28 | 0.0 | 0.0 | 0.00 | 0.31 | 0.00 | 75 | 1011.3 |
| 20260507052427 | 54 | 27 | 0.0 | 1.0 | 0.00 | 0.31 | 0.00 | 74 | 1011.3 |
| 20260507052356 | 54 | 27 | 0.0 | 1.0 | 0.00 | 0.31 | 0.00 | 74 | 1011.3 |
| 20260507052004 | 54 | 350 | 0.0 | 2.0 | 0.00 | 0.31 | 0.00 | 74 | 1011.2 |
| 20260507051856 | 54 | 350 | 0.0 | 2.0 | 0.00 | 0.31 | 0.00 | 74 | 1011.2 |
| 20260507051712 | 54 | 19 | 0.0 | 2.0 | 0.00 | 0.31 | 0.00 | 75 | 1011.2 |
| 20260507051356 | 54 | 19 | 0.0 | 2.0 | 0.00 | 0.31 | 0.00 | 75 | 1011.2 |
| 20260507050856 | 54 | 333 | 1.0 | 2.0 | 0.00 | 0.31 | 0.00 | 74 | 1011.4 |
| 20260507050357 | 54 | 328 | 1.0 | 4.0 | 0.00 | 0.31 | 0.00 | 72 | 1011.5 |
| 20260507045856 | 55 | 325 | 1.0 | 4.0 | 0.00 | 0.31 | 0.00 | 73 | 1011.3 |
| 20260507045403 | 55 | 327 | 1.0 | 4.0 | 0.00 | 0.31 | 0.00 | 73 | 1011.2 |
| 20260507045019 | 55 | 341 | 1.0 | 3.0 | 0.00 | 0.31 | 0.00 | 73 | 1011.2 |
| 20260507044856 | 55 | 341 | 1.0 | 3.0 | 0.00 | 0.31 | 0.00 | 73 | 1011.2 |
| 20260507044356 | 55 | 325 | 1.0 | 3.0 | 0.00 | 0.31 | 0.00 | 73 | 1011.4 |
| 20260507043858 | 55 | 311 | 2.0 | 3.0 | 0.00 | 0.31 | 0.00 | 73 | 1011.5 |
| 20260507043356 | 55 | 322 | 2.0 | 4.0 | 0.00 | 0.31 | 0.00 | 73 | 1011.4 |
| 20260507042859 | 55 | 309 | 1.0 | 4.0 | 0.00 | 0.31 | 0.00 | 73 | 1011.3 |
| 20260507042500 | 55 | 317 | 0.0 | 1.0 | 0.00 | 0.31 | 0.00 | 74 | 1011.2 |
| 20260507042356 | 55 | 317 | 0.0 | 1.0 | 0.00 | 0.31 | 0.00 | 74 | 1011.2 |
| 20260507041856 | 55 | 103 | 0.0 | 1.0 | 0.00 | 0.31 | 0.00 | 74 | 1011.1 |
| 20260507041356 | 55 | 103 | 0.0 | 0.0 | 0.00 | 0.31 | 0.00 | 75 | 1011.3 |
| 20260507041128 | 55 | 306 | 1.0 | 1.0 | 0.00 | 0.31 | 0.00 | 75 | 1011.6 |
| 20260507040857 | 55 | 306 | 1.0 | 1.0 | 0.00 | 0.31 | 0.00 | 75 | 1011.6 |
| 20260507040628 | 55 | 308 | 1.0 | 4.0 | 0.00 | 0.31 | 0.00 | 75 | 1011.5 |
| 20260507040357 | 55 | 308 | 1.0 | 4.0 | 0.00 | 0.31 | 0.00 | 75 | 1011.5 |
| 20260507035857 | 55 | 345 | 1.0 | 3.0 | 0.00 | 0.31 | 0.31 | 75 | 1011.3 |
| 20260507035638 | 55 | 58 | 2.0 | 3.0 | 0.00 | 0.31 | 0.31 | 76 | 1011.0 |
| 20260507035358 | 55 | 58 | 2.0 | 3.0 | 0.00 | 0.31 | 0.31 | 76 | 1011.0 |
| 20260507034857 | 55 | 59 | 1.0 | 4.0 | 0.00 | 0.31 | 0.31 | 74 | 1010.8 |
| 20260507034357 | 56 | 65 | 0.0 | 2.0 | 0.00 | 0.31 | 0.31 | 75 | 1010.9 |
| 20260507033929 | 56 | 58 | 0.0 | 0.0 | 0.00 | 0.31 | 0.31 | 75 | 1011.1 |
| 20260507033857 | 56 | 58 | 0.0 | 0.0 | 0.00 | 0.31 | 0.31 | 75 | 1011.1 |
| 20260507033437 | 56 | 58 | 1.0 | 2.0 | 0.00 | 0.31 | 0.31 | 74 | 1010.8 |
| 20260507033357 | 56 | 58 | 1.0 | 2.0 | 0.00 | 0.31 | 0.31 | 74 | 1010.8 |
| 20260507032858 | 56 | 57 | 1.0 | 2.0 | 0.00 | 0.31 | 0.31 | 74 | 1010.9 |
| 20260507032357 | 56 | 5 | 1.0 | 5.0 | 0.00 | 0.31 | 0.31 | 74 | 1011.1 |
| 20260507031857 | 56 | 315 | 2.0 | 5.0 | 0.00 | 0.31 | 0.31 | 74 | 1011.2 |
| 20260507031358 | 56 | 312 | 3.0 | 6.0 | 0.00 | 0.31 | 0.31 | 74 | 1011.2 |
| 20260507030858 | 56 | 300 | 4.0 | 4.0 | 0.00 | 0.31 | 0.31 | 75 | 1011.1 |
| 20260507030504 | 56 | 306 | 7.0 | 9.0 | 0.00 | 0.31 | 0.31 | 75 | 1011.1 |
| 20260507030357 | 56 | 306 | 7.0 | 9.0 | 0.00 | 0.31 | 0.31 | 75 | 1011.1 |
| 20260507025857 | 57 | 311 | 7.0 | 12.0 | 0.00 | 0.31 | 0.31 | 74 | 1011.1 |
| 20260507025357 | 57 | 312 | 6.0 | 11.0 | 0.00 | 0.31 | 0.31 | 74 | 1010.9 |
| 20260507024859 | 57 | 312 | 6.0 | 10.0 | 0.00 | 0.31 | 0.31 | 74 | 1010.7 |
| 20260507024507 | 57 | 294 | 7.0 | 11.0 | 0.00 | 0.31 | 0.31 | 74 | 1010.6 |
| 20260507024357 | 57 | 294 | 7.0 | 11.0 | 0.00 | 0.31 | 0.31 | 74 | 1010.6 |
| 20260507024005 | 57 | 302 | 9.0 | 13.0 | 0.00 | 0.31 | 0.31 | 74 | 1010.4 |
| 20260507023857 | 57 | 302 | 9.0 | 13.0 | 0.00 | 0.31 | 0.31 | 74 | 1010.4 |
| 20260507023357 | 57 | 309 | 10.0 | 15.0 | 0.00 | 0.31 | 0.31 | 73 | 1010.4 |
| 20260507022857 | 57 | 304 | 9.0 | 14.0 | 0.00 | 0.31 | 0.31 | 74 | 1010.5 |
| 20260507022357 | 57 | 304 | 7.0 | 14.0 | 0.00 | 0.31 | 0.31 | 74 | 1010.5 |
| 20260507021857 | 58 | 310 | 5.0 | 10.0 | 0.00 | 0.31 | 0.31 | 74 | 1010.7 |
| 20260507021404 | 58 | 322 | 3.0 | 8.0 | 0.00 | 0.31 | 0.31 | 74 | 1010.6 |
| 20260507020857 | 58 | 317 | 3.0 | 4.0 | 0.00 | 0.31 | 0.31 | 75 | 1010.8 |
| 20260507020512 | 58 | 304 | 4.0 | 10.0 | 0.00 | 0.31 | 0.31 | 74 | 1010.8 |
| 20260507020357 | 58 | 304 | 4.0 | 10.0 | 0.00 | 0.31 | 0.31 | 74 | 1010.8 |
| 20260507015857 | 58 | 318 | 3.0 | 9.0 | 0.00 | 0.31 | 0.31 | 73 | 1010.7 |
| 20260507015359 | 58 | 43 | 3.0 | 6.0 | 0.00 | 0.31 | 0.31 | 74 | 1010.6 |
| 20260507014857 | 58 | 340 | 2.0 | 8.0 | 0.00 | 0.31 | 0.31 | 75 | 1010.5 |
| 20260507014503 | 59 | 56 | 1.0 | 4.0 | 0.00 | 0.31 | 0.31 | 75 | 1010.4 |
| 20260507014357 | 59 | 56 | 1.0 | 4.0 | 0.00 | 0.31 | 0.31 | 75 | 1010.4 |
| 20260507014052 | 59 | 309 | 2.0 | 5.0 | 0.00 | 0.31 | 0.31 | 74 | 1010.5 |
| 20260507013857 | 59 | 309 | 2.0 | 5.0 | 0.00 | 0.31 | 0.31 | 74 | 1010.5 |
| 20260507013454 | 59 | 9 | 2.0 | 5.0 | 0.00 | 0.31 | 0.31 | 74 | 1010.5 |
| 20260507013357 | 59 | 9 | 2.0 | 5.0 | 0.00 | 0.31 | 0.31 | 74 | 1010.5 |
| 20260507013057 | 59 | 323 | 3.0 | 6.0 | 0.00 | 0.31 | 0.31 | 73 | 1010.3 |
| 20260507012857 | 59 | 323 | 3.0 | 6.0 | 0.00 | 0.31 | 0.31 | 73 | 1010.3 |
| 20260507012622 | 59 | 304 | 4.0 | 9.0 | 0.00 | 0.31 | 0.31 | 73 | 1010.4 |
| 20260507012358 | 59 | 304 | 4.0 | 9.0 | 0.00 | 0.31 | 0.31 | 73 | 1010.4 |
| 20260507012036 | 60 | 312 | 5.0 | 9.0 | 0.00 | 0.31 | 0.31 | 73 | 1010.0 |
| 20260507011858 | 60 | 301 | 5.0 | 9.0 | 0.00 | 0.31 | 0.31 | 72 | 1010.2 |
| 20260507011357 | 60 | 312 | 5.0 | 9.0 | 0.00 | 0.31 | 0.31 | 73 | 1010.0 |
| 20260507010857 | 60 | 301 | 6.0 | 10.0 | 0.00 | 0.31 | 0.31 | 74 | 1010.2 |
| 20260507010358 | 60 | 284 | 7.0 | 13.0 | 0.00 | 0.31 | 0.31 | 73 | 1010.4 |
| 20260507005859 | 60 | 309 | 6.0 | 11.0 | 0.00 | 0.31 | 0.31 | 73 | 1010.3 |
| 20260507005357 | 61 | 288 | 7.0 | 12.0 | 0.00 | 0.31 | 0.31 | 73 | 1010.3 |
| 20260507005305 | 61 | 311 | 7.0 | 13.0 | 0.00 | 0.31 | 0.31 | 73 | 1010.2 |
| 20260507004857 | 61 | 311 | 7.0 | 13.0 | 0.00 | 0.31 | 0.31 | 73 | 1010.2 |
| 20260507004442 | 61 | 297 | 7.0 | 11.0 | 0.00 | 0.31 | 0.31 | 73 | 1010.2 |
| 20260507004357 | 61 | 297 | 7.0 | 11.0 | 0.00 | 0.31 | 0.31 | 73 | 1010.2 |
| 20260507003857 | 61 | 290 | 9.0 | 12.0 | 0.00 | 0.31 | 0.31 | 72 | 1010.2 |
| 20260507003357 | 61 | 305 | 8.0 | 14.0 | 0.00 | 0.31 | 0.31 | 73 | 1010.2 |
| 20260507002857 | 61 | 321 | 6.0 | 12.0 | 0.00 | 0.31 | 0.31 | 73 | 1010.1 |
| 20260507002830 | 62 | 315 | 4.0 | 9.0 | 0.00 | 0.31 | 0.31 | 76 | 1009.9 |
| 20260507002358 | 61 | 320 | 4.0 | 9.0 | 0.00 | 0.31 | 0.31 | 74 | 1009.9 |
| 20260507001857 | 62 | 315 | 4.0 | 9.0 | 0.00 | 0.31 | 0.31 | 76 | 1009.9 |
| 20260507001504 | 62 | 299 | 4.0 | 7.0 | 0.00 | 0.31 | 0.31 | 77 | 1009.7 |
| 20260507001414 | 62 | 306 | 2.0 | 5.0 | 0.00 | 0.31 | 0.31 | 77 | 1009.8 |
| 20260507001357 | 62 | 299 | 4.0 | 7.0 | 0.00 | 0.31 | 0.31 | 77 | 1009.7 |
| 20260507000857 | 62 | 306 | 2.0 | 5.0 | 0.00 | 0.31 | 0.31 | 77 | 1009.8 |
| 20260507000507 | 62 | 337 | 1.0 | 4.0 | 0.00 | 0.31 | 0.31 | 79 | 1009.7 |
| 20260507000358 | 62 | 337 | 1.0 | 4.0 | 0.00 | 0.31 | 0.31 | 79 | 1009.7 |
| 20260506235956 | 62 | 242 | 0.0 | 1.0 | 0.00 | 0.31 | 0.31 | 80 | 1009.7 |
| 20260506235857 | 62 | 242 | 0.0 | 1.0 | 0.00 | 0.31 | 0.31 | 80 | 1009.7 |
| 20260506235605 | 62 | 244 | 0.0 | 2.0 | 0.00 | 0.31 | 0.31 | 80 | 1009.6 |
| 20260506235504 | 62 | 244 | 0.0 | 2.0 | 0.00 | 0.31 | 0.31 | 80 | 1009.6 |
| 20260506235357 | 62 | 244 | 0.0 | 2.0 | 0.00 | 0.31 | 0.31 | 80 | 1009.6 |
| 20260506234944 | 63 | 289 | 0.0 | 0.0 | 0.00 | 0.31 | 0.31 | 78 | 1009.2 |
| 20260506234858 | 63 | 289 | 0.0 | 0.0 | 0.00 | 0.31 | 0.31 | 78 | 1009.2 |
| 20260506234359 | 63 | 289 | 1.0 | 2.0 | 0.00 | 0.31 | 0.31 | 78 | 1008.7 |
| 20260506233857 | 63 | 273 | 2.0 | 4.0 | 0.00 | 0.31 | 0.31 | 77 | 1008.8 |
| 20260506233357 | 63 | 261 | 1.0 | 2.0 | 0.00 | 0.31 | 0.31 | 79 | 1008.9 |
| 20260506232857 | 63 | 243 | 2.0 | 3.0 | 0.00 | 0.31 | 0.31 | 79 | 1009.0 |
| 20260506232432 | 63 | 257 | 2.0 | 4.0 | 0.00 | 0.31 | 0.31 | 79 | 1008.9 |
| 20260506232357 | 63 | 257 | 2.0 | 4.0 | 0.00 | 0.31 | 0.31 | 79 | 1008.9 |
| 20260506231932 | 64 | 256 | 3.0 | 4.0 | 0.00 | 0.31 | 0.31 | 79 | 1008.9 |
| 20260506231858 | 64 | 256 | 3.0 | 4.0 | 0.00 | 0.31 | 0.31 | 79 | 1008.9 |
| 20260506231501 | 64 | 236 | 3.0 | 6.0 | 0.00 | 0.31 | 0.31 | 79 | 1008.7 |
| 20260506231357 | 64 | 236 | 3.0 | 6.0 | 0.00 | 0.31 | 0.31 | 79 | 1008.7 |
| 20260506230857 | 64 | 252 | 3.0 | 7.0 | 0.00 | 0.31 | 0.31 | 80 | 1008.8 |
| 20260506230435 | 64 | 245 | 2.0 | 5.0 | 0.01 | 0.31 | 0.31 | 83 | 1008.6 |
| 20260506230357 | 64 | 245 | 2.0 | 5.0 | 0.01 | 0.31 | 0.31 | 83 | 1008.6 |
| 20260506225857 | 64 | 267 | 2.0 | 5.0 | 0.01 | 0.31 | 0.31 | 83 | 1008.5 |
| 20260506225357 | 63 | 262 | 3.0 | 5.0 | 0.01 | 0.31 | 0.31 | 84 | 1008.4 |
| 20260506224857 | 63 | 277 | 2.0 | 7.0 | 0.01 | 0.31 | 0.31 | 86 | 1008.4 |
| 20260506224357 | 63 | 314 | 0.0 | 4.0 | 0.01 | 0.31 | 0.31 | 85 | 1008.5 |
| 20260506223925 | 63 | 166 | 1.0 | 2.0 | 0.01 | 0.31 | 0.31 | 85 | 1008.4 |
| 20260506223858 | 63 | 150 | 0.0 | 1.0 | 0.01 | 0.31 | 0.31 | 85 | 1008.3 |
| 20260506223357 | 63 | 166 | 1.0 | 2.0 | 0.01 | 0.31 | 0.31 | 85 | 1008.4 |
| 20260506222857 | 64 | 159 | 1.0 | 3.0 | 0.01 | 0.31 | 0.31 | 84 | 1008.4 |
| 20260506222405 | 64 | 183 | 2.0 | 5.0 | 0.01 | 0.31 | 0.31 | 84 | 1008.2 |
| 20260506221857 | 64 | 165 | 3.0 | 6.0 | 0.01 | 0.31 | 0.31 | 83 | 1008.3 |
| 20260506221626 | 64 | 156 | 4.0 | 7.0 | 0.01 | 0.31 | 0.31 | 83 | 1008.2 |
| 20260506221357 | 64 | 156 | 4.0 | 7.0 | 0.01 | 0.31 | 0.31 | 83 | 1008.2 |
| 20260506220857 | 64 | 240 | 3.0 | 12.0 | 0.01 | 0.31 | 0.31 | 82 | 1008.3 |
| 20260506220358 | 65 | 219 | 3.0 | 8.0 | 0.00 | 0.30 | 0.30 | 81 | 1008.2 |
| 20260506215857 | 65 | 236 | 4.0 | 6.0 | 0.00 | 0.30 | 0.30 | 81 | 1008.2 |
| 20260506215449 | 65 | 232 | 3.0 | 6.0 | 0.00 | 0.30 | 0.30 | 80 | 1008.0 |
| 20260506215357 | 65 | 167 | 4.0 | 9.0 | 0.00 | 0.30 | 0.30 | 80 | 1008.1 |
| 20260506214857 | 65 | 232 | 3.0 | 6.0 | 0.00 | 0.30 | 0.30 | 80 | 1008.0 |
| 20260506214357 | 65 | 237 | 4.0 | 7.0 | 0.00 | 0.30 | 0.30 | 80 | 1008.0 |
| 20260506213859 | 65 | 186 | 4.0 | 9.0 | 0.00 | 0.30 | 0.30 | 79 | 1008.0 |
| 20260506213357 | 65 | 187 | 4.0 | 10.0 | 0.00 | 0.30 | 0.30 | 80 | 1007.9 |
| 20260506212857 | 65 | 163 | 4.0 | 8.0 | 0.00 | 0.30 | 0.30 | 80 | 1007.8 |
| 20260506212357 | 65 | 174 | 4.0 | 9.0 | 0.00 | 0.30 | 0.30 | 80 | 1007.7 |
| 20260506211857 | 65 | 235 | 4.0 | 8.0 | 0.00 | 0.30 | 0.30 | 79 | 1007.6 |
| 20260506211357 | 65 | 245 | 3.0 | 10.0 | 0.00 | 0.30 | 0.30 | 79 | 1007.6 |
| 20260506210857 | 65 | 224 | 3.0 | 8.0 | 0.00 | 0.30 | 0.30 | 79 | 1007.4 |
| 20260506210359 | 65 | 165 | 5.0 | 11.0 | 0.00 | 0.30 | 0.30 | 79 | 1007.6 |
| 20260506205857 | 65 | 224 | 5.0 | 11.0 | 0.00 | 0.30 | 0.30 | 79 | 1007.5 |
| 20260506205400 | 65 | 161 | 3.0 | 11.0 | 0.00 | 0.30 | 0.30 | 79 | 1007.4 |
| 20260506204901 | 65 | 175 | 3.0 | 7.0 | 0.00 | 0.30 | 0.30 | 79 | 1007.5 |
| 20260506204357 | 65 | 221 | 4.0 | 7.0 | 0.00 | 0.30 | 0.30 | 79 | 1007.4 |
| 20260506204304 | 66 | 184 | 3.0 | 10.0 | 0.00 | 0.30 | 0.30 | 79 | 1007.3 |
| 20260506203858 | 66 | 184 | 3.0 | 10.0 | 0.00 | 0.30 | 0.30 | 79 | 1007.3 |
| 20260506203357 | 65 | 154 | 2.0 | 7.0 | 0.00 | 0.30 | 0.30 | 80 | 1007.3 |
| 20260506202859 | 65 | 178 | 3.0 | 2.0 | 0.00 | 0.30 | 0.30 | 80 | 1007.4 |
| 20260506202857 | 65 | 178 | 2.0 | 7.0 | 0.00 | 0.30 | 0.30 | 80 | 1007.3 |
| 20260506202357 | 65 | 178 | 3.0 | 2.0 | 0.00 | 0.30 | 0.30 | 80 | 1007.4 |
| 20260506201857 | 65 | 161 | 2.0 | 8.0 | 0.00 | 0.30 | 0.30 | 80 | 1007.5 |
| 20260506201357 | 65 | 257 | 2.0 | 6.0 | 0.00 | 0.30 | 0.30 | 81 | 1007.5 |
| 20260506200943 | 65 | 181 | 3.0 | 7.0 | 0.00 | 0.30 | 0.30 | 80 | 1007.5 |
| 20260506200858 | 65 | 181 | 3.0 | 7.0 | 0.00 | 0.30 | 0.30 | 80 | 1007.5 |
| 20260506200357 | 65 | 184 | 3.0 | 7.0 | 0.00 | 0.30 | 0.30 | 80 | 1007.5 |
| 20260506195858 | 65 | 187 | 3.0 | 7.0 | 0.00 | 0.30 | 0.30 | 79 | 1007.5 |
| 20260506195400 | 65 | 225 | 3.0 | 7.0 | 0.00 | 0.30 | 0.30 | 79 | 1007.6 |
| 20260506194858 | 65 | 209 | 4.0 | 6.0 | 0.00 | 0.30 | 0.30 | 79 | 1007.6 |
| 20260506194707 | 66 | 220 | 4.0 | 10.0 | 0.00 | 0.30 | 0.30 | 79 | 1007.5 |
| 20260506194358 | 66 | 220 | 4.0 | 10.0 | 0.00 | 0.30 | 0.30 | 79 | 1007.5 |
| 20260506193859 | 66 | 164 | 5.0 | 9.0 | 0.00 | 0.30 | 0.30 | 79 | 1007.6 |
| 20260506193358 | 66 | 202 | 4.0 | 10.0 | 0.00 | 0.30 | 0.30 | 79 | 1007.5 |
| 20260506192930 | 66 | 234 | 3.0 | 10.0 | 0.00 | 0.30 | 0.30 | 80 | 1007.5 |
| 20260506192858 | 66 | 234 | 3.0 | 10.0 | 0.00 | 0.30 | 0.30 | 80 | 1007.5 |
| 20260506192651 | 65 | 140 | 4.0 | 11.0 | 0.00 | 0.30 | 0.30 | 82 | 1007.5 |
| 20260506192358 | 65 | 232 | 4.0 | 6.0 | 0.00 | 0.30 | 0.30 | 82 | 1007.4 |
| 20260506192247 | 65 | 140 | 4.0 | 11.0 | 0.00 | 0.30 | 0.30 | 82 | 1007.5 |
| 20260506191859 | 65 | 140 | 4.0 | 11.0 | 0.00 | 0.30 | 0.30 | 82 | 1007.5 |
| 20260506191435 | 64 | 189 | 4.0 | 8.0 | 0.00 | 0.30 | 0.30 | 83 | 1007.6 |
| 20260506191358 | 64 | 189 | 4.0 | 8.0 | 0.00 | 0.30 | 0.30 | 83 | 1007.6 |
| 20260506190858 | 64 | 171 | 3.0 | 8.0 | 0.00 | 0.30 | 0.30 | 83 | 1007.6 |
| 20260506190603 | 64 | 187 | 3.0 | 6.0 | 0.00 | 0.30 | 0.30 | 84 | 1007.7 |
| 20260506190359 | 64 | 187 | 3.0 | 6.0 | 0.00 | 0.30 | 0.30 | 84 | 1007.7 |
| 20260506185858 | 64 | 148 | 3.0 | 8.0 | 0.00 | 0.30 | 0.30 | 84 | 1007.7 |
| 20260506185438 | 64 | 182 | 3.0 | 8.0 | 0.00 | 0.30 | 0.30 | 83 | 1007.7 |
| 20260506185359 | 64 | 182 | 3.0 | 8.0 | 0.00 | 0.30 | 0.30 | 83 | 1007.7 |
| 20260506184858 | 64 | 169 | 3.0 | 6.0 | 0.00 | 0.30 | 0.30 | 83 | 1007.8 |
| 20260506184358 | 64 | 263 | 3.0 | 9.0 | 0.00 | 0.30 | 0.30 | 82 | 1007.7 |
| 20260506184106 | 64 | 217 | 2.0 | 8.0 | 0.00 | 0.30 | 0.30 | 82 | 1007.8 |
| 20260506183858 | 64 | 217 | 2.0 | 8.0 | 0.00 | 0.30 | 0.30 | 82 | 1007.8 |
| 20260506183559 | 64 | 211 | 3.0 | 7.0 | 0.00 | 0.30 | 0.30 | 82 | 1007.8 |
| 20260506183358 | 64 | 211 | 3.0 | 7.0 | 0.00 | 0.30 | 0.30 | 82 | 1007.8 |
| 20260506182858 | 64 | 194 | 2.0 | 7.0 | 0.00 | 0.30 | 0.30 | 82 | 1007.8 |
| 20260506182358 | 63 | 211 | 1.0 | 5.0 | 0.00 | 0.30 | 0.30 | 82 | 1007.8 |
| 20260506182146 | 63 | 211 | 0.0 | 4.0 | 0.00 | 0.30 | 0.30 | 83 | 1007.9 |
| 20260506181858 | 63 | 211 | 0.0 | 4.0 | 0.00 | 0.30 | 0.30 | 83 | 1007.9 |
| 20260506181717 | 63 | 221 | 1.0 | 3.0 | 0.00 | 0.30 | 0.30 | 83 | 1007.8 |
| 20260506181358 | 63 | 221 | 1.0 | 3.0 | 0.00 | 0.30 | 0.30 | 83 | 1007.8 |
| 20260506181304 | 63 | 143 | 1.0 | 2.0 | 0.00 | 0.30 | 0.30 | 83 | 1007.8 |
| 20260506180858 | 63 | 143 | 1.0 | 2.0 | 0.00 | 0.30 | 0.30 | 83 | 1007.8 |
| 20260506180554 | 63 | 257 | 2.0 | 3.0 | 0.00 | 0.30 | 0.30 | 83 | 1007.8 |
| 20260506180358 | 63 | 257 | 2.0 | 3.0 | 0.00 | 0.30 | 0.30 | 83 | 1007.8 |
| 20260506175858 | 63 | 111 | 2.0 | 6.0 | 0.00 | 0.30 | 0.30 | 83 | 1007.7 |
| 20260506175400 | 62 | 187 | 2.0 | 6.0 | 0.00 | 0.30 | 0.30 | 83 | 1007.8 |
| 20260506175222 | 62 | 182 | 2.0 | 4.0 | 0.00 | 0.30 | 0.30 | 83 | 1007.8 |
| 20260506174858 | 62 | 182 | 2.0 | 4.0 | 0.00 | 0.30 | 0.30 | 83 | 1007.8 |
| 20260506174358 | 62 | 234 | 2.0 | 6.0 | 0.00 | 0.30 | 0.30 | 83 | 1007.9 |
| 20260506173858 | 62 | 248 | 3.0 | 7.0 | 0.00 | 0.30 | 0.30 | 83 | 1007.9 |
| 20260506173530 | 62 | 177 | 3.0 | 7.0 | 0.00 | 0.30 | 0.30 | 83 | 1007.8 |
| 20260506173358 | 62 | 177 | 3.0 | 7.0 | 0.00 | 0.30 | 0.30 | 83 | 1007.8 |
| 20260506172911 | 62 | 188 | 4.0 | 9.0 | 0.00 | 0.30 | 0.30 | 83 | 1007.8 |
| 20260506172858 | 62 | 211 | 4.0 | 9.0 | 0.00 | 0.30 | 0.30 | 83 | 1007.9 |
| 20260506172359 | 62 | 188 | 4.0 | 9.0 | 0.00 | 0.30 | 0.30 | 83 | 1007.8 |
| 20260506171858 | 62 | 187 | 4.0 | 10.0 | 0.00 | 0.30 | 0.30 | 83 | 1007.9 |
| 20260506171358 | 62 | 150 | 5.0 | 11.0 | 0.00 | 0.30 | 0.30 | 83 | 1007.8 |
| 20260506170859 | 62 | 195 | 4.0 | 10.0 | 0.00 | 0.30 | 0.30 | 84 | 1007.8 |
| 20260506170400 | 61 | 209 | 6.0 | 14.0 | 0.00 | 0.30 | 0.30 | 84 | 1007.9 |
| 20260506165858 | 61 | 176 | 5.0 | 12.0 | 0.00 | 0.30 | 0.30 | 84 | 1007.8 |
| 20260506165359 | 61 | 200 | 5.0 | 10.0 | 0.00 | 0.30 | 0.30 | 84 | 1007.9 |
| 20260506164858 | 61 | 156 | 6.0 | 11.0 | 0.00 | 0.30 | 0.30 | 84 | 1007.9 |
| 20260506164358 | 61 | 150 | 6.0 | 11.0 | 0.00 | 0.30 | 0.30 | 84 | 1007.8 |
| 20260506163858 | 61 | 207 | 7.0 | 15.0 | 0.00 | 0.30 | 0.30 | 85 | 1007.9 |
| 20260506163358 | 61 | 214 | 7.0 | 15.0 | 0.00 | 0.30 | 0.30 | 85 | 1008.0 |
| 20260506162858 | 61 | 182 | 6.0 | 15.0 | 0.00 | 0.30 | 0.30 | 84 | 1007.9 |
| 20260506162358 | 61 | 206 | 5.0 | 14.0 | 0.00 | 0.30 | 0.30 | 85 | 1008.0 |
| 20260506162133 | 60 | 138 | 5.0 | 13.0 | 0.00 | 0.30 | 0.30 | 85 | 1007.9 |
| 20260506161858 | 61 | 203 | 5.0 | 14.0 | 0.00 | 0.30 | 0.30 | 85 | 1007.7 |
| 20260506161358 | 60 | 180 | 6.0 | 9.0 | 0.00 | 0.30 | 0.30 | 85 | 1007.8 |
| 20260506160858 | 60 | 138 | 5.0 | 13.0 | 0.00 | 0.30 | 0.30 | 85 | 1007.9 |
| 20260506160632 | 60 | 154 | 6.0 | 16.0 | 0.01 | 0.30 | 0.30 | 85 | 1008.1 |
| 20260506160431 | 60 | 239 | 5.0 | 13.0 | 0.00 | 0.30 | 0.30 | 86 | 1008.0 |
| 20260506160358 | 60 | 239 | 5.0 | 13.0 | 0.00 | 0.30 | 0.30 | 86 | 1008.0 |
| 20260506155858 | 60 | 168 | 6.0 | 13.0 | 0.00 | 0.30 | 0.30 | 85 | 1008.0 |
| 20260506155358 | 60 | 154 | 6.0 | 16.0 | 0.01 | 0.30 | 0.30 | 85 | 1008.1 |
| 20260506154858 | 60 | 146 | 7.0 | 15.0 | 0.01 | 0.30 | 0.30 | 85 | 1008.1 |
| 20260506154358 | 61 | 165 | 7.0 | 15.0 | 0.01 | 0.30 | 0.30 | 85 | 1008.1 |
| 20260506153858 | 61 | 169 | 6.0 | 18.0 | 0.02 | 0.30 | 0.30 | 85 | 1007.9 |
| 20260506153358 | 61 | 219 | 5.0 | 14.0 | 0.02 | 0.30 | 0.30 | 85 | 1008.0 |
| 20260506152858 | 61 | 189 | 6.0 | 16.0 | 0.03 | 0.30 | 0.30 | 86 | 1008.0 |
| 20260506152401 | 61 | 177 | 7.0 | 16.0 | 0.05 | 0.30 | 0.30 | 86 | 1007.9 |
| 20260506152141 | 61 | 276 | 7.0 | 15.0 | 0.07 | 0.30 | 0.30 | 86 | 1007.9 |
| 20260506151858 | 61 | 276 | 7.0 | 15.0 | 0.07 | 0.30 | 0.30 | 86 | 1007.9 |
| 20260506151603 | 60 | 198 | 7.0 | 18.0 | 0.08 | 0.30 | 0.30 | 86 | 1007.8 |
| 20260506151358 | 60 | 198 | 7.0 | 18.0 | 0.08 | 0.30 | 0.30 | 86 | 1007.8 |
| 20260506150858 | 60 | 226 | 6.0 | 13.0 | 0.13 | 0.30 | 0.30 | 87 | 1007.9 |
| 20260506150358 | 60 | 180 | 6.0 | 11.0 | 0.14 | 0.30 | 0.30 | 87 | 1007.7 |
| 20260506145858 | 60 | 167 | 5.0 | 20.0 | 0.14 | 0.30 | 0.30 | 87 | 1007.7 |
| 20260506145358 | 60 | 140 | 5.0 | 10.0 | 0.14 | 0.29 | 0.29 | 87 | 1007.7 |
| 20260506145013 | 60 | 153 | 3.0 | 11.0 | 0.15 | 0.29 | 0.29 | 87 | 1008.0 |
| 20260506144858 | 60 | 153 | 3.0 | 11.0 | 0.15 | 0.29 | 0.29 | 87 | 1008.0 |
| 20260506144358 | 60 | 189 | 3.0 | 12.0 | 0.15 | 0.29 | 0.29 | 88 | 1008.1 |
| 20260506144014 | 60 | 180 | 3.0 | 8.0 | 0.14 | 0.28 | 0.28 | 88 | 1008.4 |
| 20260506143900 | 60 | 180 | 3.0 | 8.0 | 0.14 | 0.28 | 0.28 | 88 | 1008.4 |
| 20260506143358 | 59 | 179 | 4.0 | 11.0 | 0.13 | 0.27 | 0.27 | 88 | 1008.7 |
| 20260506142901 | 59 | 217 | 4.0 | 9.0 | 0.13 | 0.27 | 0.27 | 87 | 1009.0 |
| 20260506142400 | 59 | 211 | 5.0 | 12.0 | 0.12 | 0.25 | 0.25 | 87 | 1009.0 |
| 20260506142005 | 59 | 227 | 6.0 | 12.0 | 0.10 | 0.23 | 0.23 | 87 | 1009.0 |
| 20260506141859 | 59 | 227 | 6.0 | 12.0 | 0.10 | 0.23 | 0.23 | 87 | 1009.0 |
| 20260506141455 | 59 | 171 | 6.0 | 13.0 | 0.08 | 0.20 | 0.20 | 87 | 1008.7 |
| 20260506141358 | 59 | 171 | 6.0 | 13.0 | 0.08 | 0.20 | 0.20 | 87 | 1008.7 |
| 20260506141254 | 60 | 160 | 7.0 | 14.0 | 0.06 | 0.16 | 0.16 | 86 | 1008.5 |
| 20260506140859 | 60 | 215 | 7.0 | 14.0 | 0.06 | 0.17 | 0.17 | 86 | 1008.4 |
| 20260506140505 | 60 | 160 | 7.0 | 14.0 | 0.06 | 0.16 | 0.16 | 86 | 1008.5 |
| 20260506140358 | 60 | 160 | 7.0 | 14.0 | 0.06 | 0.16 | 0.16 | 86 | 1008.5 |
| 20260506135858 | 60 | 187 | 6.0 | 12.0 | 0.06 | 0.16 | 0.16 | 86 | 1008.2 |
| 20260506135358 | 60 | 182 | 5.0 | 13.0 | 0.06 | 0.15 | 0.15 | 86 | 1008.4 |
| 20260506134859 | 60 | 223 | 6.0 | 13.0 | 0.05 | 0.14 | 0.14 | 86 | 1008.3 |
| 20260506134358 | 60 | 221 | 5.0 | 16.0 | 0.06 | 0.14 | 0.14 | 86 | 1008.2 |
| 20260506133859 | 60 | 207 | 4.0 | 10.0 | 0.06 | 0.14 | 0.14 | 87 | 1008.2 |
| 20260506133358 | 60 | 188 | 4.0 | 9.0 | 0.07 | 0.14 | 0.14 | 87 | 1008.2 |
| 20260506132858 | 59 | 234 | 5.0 | 13.0 | 0.06 | 0.13 | 0.13 | 87 | 1008.3 |
| 20260506132358 | 59 | 179 | 5.0 | 12.0 | 0.06 | 0.13 | 0.13 | 87 | 1008.3 |
| 20260506131858 | 59 | 202 | 3.0 | 9.0 | 0.06 | 0.12 | 0.12 | 87 | 1008.3 |
| 20260506131358 | 59 | 209 | 3.0 | 5.0 | 0.06 | 0.12 | 0.12 | 87 | 1008.2 |
| 20260506130859 | 59 | 224 | 3.0 | 9.0 | 0.05 | 0.11 | 0.11 | 86 | 1008.2 |
| 20260506130358 | 59 | 136 | 3.0 | 7.0 | 0.05 | 0.10 | 0.10 | 86 | 1008.3 |
| 20260506125858 | 59 | 210 | 4.0 | 8.0 | 0.05 | 0.10 | 0.10 | 85 | 1008.3 |
| 20260506125358 | 59 | 233 | 4.0 | 11.0 | 0.05 | 0.09 | 0.09 | 85 | 1008.4 |
| 20260506124858 | 59 | 196 | 4.0 | 12.0 | 0.05 | 0.09 | 0.09 | 85 | 1008.3 |
| 20260506124359 | 59 | 165 | 4.0 | 13.0 | 0.05 | 0.08 | 0.08 | 85 | 1008.3 |
| 20260506123859 | 59 | 134 | 4.0 | 12.0 | 0.06 | 0.08 | 0.08 | 85 | 1008.3 |
| 20260506123358 | 60 | 143 | 5.0 | 10.0 | 0.05 | 0.07 | 0.07 | 84 | 1008.4 |
| 20260506122859 | 60 | 244 | 5.0 | 9.0 | 0.06 | 0.07 | 0.07 | 84 | 1008.4 |
| 20260506122359 | 60 | 191 | 5.0 | 11.0 | 0.06 | 0.07 | 0.07 | 84 | 1008.6 |
| 20260506121859 | 60 | 152 | 6.0 | 12.0 | 0.05 | 0.06 | 0.06 | 83 | 1008.5 |
| 20260506121359 | 60 | 175 | 6.0 | 13.0 | 0.05 | 0.06 | 0.06 | 83 | 1008.5 |